Terminal Aerodrome Forecast
Issued by NWS Omaha/Valley, NE

Home | Current Version | Previous Version | Graphics & Text | Print | Product List | Glossary On
Versions: 1 2 3 4 5 6 7 8 9 10 11 12 13 14 15 16 17 18 19 20 21 22 23 24 25 26 27 28 29 30 31 32 33 34 35 36 37 38 39 40 41 42 43
593
FTUS43 KOAX 251711 AAB
TAFOFK
TAF AMD
KOFK 251711Z 2517/2612 36014G22KT P6SM OVC012
     FM260000 34016G24KT P6SM VCSH OVC008
     FM260600 33017KT P6SM OVC008=

USA.gov is the U.S. government's official web portal to all federal, state and local government web resources and services.